Location: Mascot Post Office (historical)
(40.2645°N, 99.5462°W)
Time: 06:31:37
(UTC+00:00)

Cosmos 2208 Rocket - Pass Details

Date: 14 July 2020
Orbit: 754 x 806 km, 74.0° (Epoch: 04 August)

Event Time Altitude Azimuth Distance (km) Brightness Sun altitude
Rises 10:28:24 0° 339° (NNW) 3,309 7.5 -9.1°
Reaches altitude 10° 10:30:49 10° 339° (NNW) 2,369 6.8 -8.8°
Maximum altitude 10:36:13 82° 253° (WSW) 798 4.0 -7.9°
Drops below altitude 10° 10:41:30 10° 166° (SSE) 2,318 6.3 -7.1°
Sets 10:43:51 0° 165° (SSE) 3,233 7.0 -6.8°
